TimeEST,TemperatureF,Dew PointF,Humidity,Sea Level PressureIn,VisibilityMPH,Wind Direction,Wind SpeedMPH,Gust SpeedMPH,PrecipitationIn,Events,Conditions,WindDirDegrees,DateUTC
12:52 AM,37.9,24.1,57,30.07,10.0,NE,11.5,-,N/A,,Overcast,50,2013-02-26 05:52:00
1:52 AM,36.0,28.0,73,30.06,7.0,ENE,10.4,-,0.00,,Overcast,60,2013-02-26 06:52:00
2:52 AM,35.1,28.9,78,30.01,6.0,NE,12.7,-,0.00,,Light Drizzle,50,2013-02-26 07:52:00
3:52 AM,34.0,30.9,89,29.98,3.0,NE,13.8,-,0.01,Rain,Light Rain,40,2013-02-26 08:52:00
4:18 AM,33.8,30.2,87,29.95,2.5,NE,12.7,19.6,0.02,Rain,Rain,40,2013-02-26 09:18:00
4:28 AM,33.8,32.0,93,29.94,2.5,NE,13.8,-,0.04,Rain,Light Rain,40,2013-02-26 09:28:00
4:52 AM,33.1,32.0,96,29.96,2.5,NNE,13.8,-,0.14,Rain,Heavy Rain,20,2013-02-26 09:52:00
5:29 AM,33.8,32.0,93,29.96,3.0,NNE,10.4,-,0.13,Rain,Rain,20,2013-02-26 10:29:00
5:52 AM,34.0,32.0,92,29.96,4.0,NE,9.2,18.4,0.18,Rain,Rain,40,2013-02-26 10:52:00
6:52 AM,34.0,32.0,92,29.93,4.0,NNE,12.7,-,0.14,Rain,Rain,30,2013-02-26 11:52:00
7:00 AM,33.8,32.0,93,29.90,4.0,NNE,12.7,-,0.02,Rain,Rain,30,2013-02-26 12:00:00
7:49 AM,33.8,33.8,100,29.88,3.0,NE,11.5,-,0.11,Rain,Rain,50,2013-02-26 12:49:00
7:52 AM,34.0,33.1,96,29.89,3.0,NE,15.0,-,0.11,Rain,Rain,50,2013-02-26 12:52:00
8:36 AM,35.6,33.8,93,29.86,3.0,NNE,11.5,-,0.10,Rain,Rain,30,2013-02-26 13:36:00
8:42 AM,35.6,33.8,93,29.86,1.0,NE,10.4,23.0,0.11,Rain,Rain,40,2013-02-26 13:42:00
8:52 AM,35.1,34.0,96,29.86,1.0,NE,12.7,-,0.18,Rain,Heavy Rain,50,2013-02-26 13:52:00
9:49 AM,35.6,35.6,100,29.83,2.0,NE,9.2,-,0.23,Rain,Light Rain,50,2013-02-26 14:49:00
9:52 AM,35.6,35.6,100,29.83,2.5,NE,8.1,-,N/A,Rain,Light Rain,50,2013-02-26 14:52:00
10:00 AM,37.4,35.6,93,29.82,3.0,ENE,5.8,-,0.01,Rain,Light Rain,70,2013-02-26 15:00:00
10:40 AM,37.4,35.6,93,29.79,2.0,NE,8.1,18.4,0.03,Rain,Rain,40,2013-02-26 15:40:00
10:52 AM,37.0,36.0,96,29.79,4.0,NE,11.5,-,0.05,Rain,Light Rain,50,2013-02-26 15:52:00
11:18 AM,37.4,35.6,93,29.75,6.0,NE,10.4,-,0.00,Rain,Light Rain,40,2013-02-26 16:18:00
11:45 AM,37.4,37.4,100,29.73,3.0,NE,9.2,-,0.00,,Overcast,50,2013-02-26 16:45:00
11:52 AM,39.0,37.0,93,29.73,5.0,NE,9.2,16.1,0.00,,Overcast,50,2013-02-26 16:52:00
12:52 PM,42.1,41.0,96,29.64,7.0,East,8.1,18.4,0.02,Rain,Light Rain,80,2013-02-26 17:52:00
1:16 PM,44.6,42.8,93,29.64,2.0,North,5.8,-,0.00,Rain,Light Rain,10,2013-02-26 18:16:00
1:52 PM,45.0,44.1,97,29.61,2.0,North,4.6,-,0.07,Rain,Light Rain,10,2013-02-26 18:52:00
2:52 PM,42.8,42.8,100,29.60,2.0,NNW,9.2,-,N/A,Rain,Light Rain,340,2013-02-26 19:52:00
3:52 PM,41.0,41.0,100,29.61,2.0,NNW,9.2,-,0.00,Rain,Light Rain,330,2013-02-26 20:52:00
4:52 PM,41.0,39.9,96,29.62,2.0,NNW,8.1,-,0.01,,Overcast,340,2013-02-26 21:52:00
5:52 PM,39.9,39.9,100,29.62,2.0,NNW,3.5,-,N/A,,Overcast,330,2013-02-26 22:52:00
6:52 PM,39.9,39.0,97,29.65,2.0,NNW,5.8,-,N/A,,Overcast,330,2013-02-26 23:52:00
7:52 PM,39.9,39.0,97,29.66,2.0,Calm,Calm,-,N/A,,Overcast,0,2013-02-27 00:52:00
8:52 PM,39.9,39.0,97,29.67,2.0,Calm,Calm,-,N/A,,Overcast,0,2013-02-27 01:52:00
9:43 PM,39.2,39.2,100,29.66,0.2,WSW,5.8,-,N/A,,Mist,240,2013-02-27 02:43:00
9:52 PM,39.9,39.0,97,29.68,0.2,WSW,5.8,-,N/A,Fog,Fog,240,2013-02-27 02:52:00
10:10 PM,39.2,39.2,100,29.67,0.2,WSW,4.6,-,N/A,Fog,Fog,240,2013-02-27 03:10:00
10:30 PM,39.2,39.2,100,29.67,0.2,SW,5.8,-,N/A,Fog,Fog,230,2013-02-27 03:30:00
10:52 PM,39.9,39.0,97,29.68,0.2,SW,6.9,-,N/A,Fog,Fog,230,2013-02-27 03:52:00
11:52 PM,39.9,39.9,100,29.68,0.2,SW,6.9,-,N/A,,Overcast,230,2013-02-27 04:52:00